Weather History for Camarillo, CA

Change the Weather History Date:

Saturday, October 15, 2011

  Actual Average Record
Temperature  
Mean Temperature 66 °F 63 °F  
Max Temperature 72 °F 74 °F 99 °F (1997)
Min Temperature 59 °F 53 °F 43 °F (1960)
Degree Days  
Heating Degree Days 0 3  
Month to date heating degree days 9 34  
Since 1 July heating degree days 15 66  
Cooling Degree Days 1 1  
Month to date cooling degree days 55 15  
Year to date cooling degree days 475 298  
Growing Degree Days 16 (Base 50)    
Moisture  
Dew Point 58 °F    
Average Humidity 73    
Maximum Humidity 84    
Minimum Humidity 61    
Precipitation  
Precipitation 0.00 in 0.01 in 0.14 in (1968)
Month to date precipitation 0.93 0.20  
Year to date precipitation 11.20 11.42  
Since 1 July precipitation 0.97 0.44  
Sea Level Pressure  
Sea Level Pressure 29.95 in    
Wind  
Wind Speed 3 mph (WSW)    
Max Wind Speed 12 mph    
Max Gust Speed 15 mph    
Visibility 8 miles    
Events      
T = Trace of Precipitation, MM = Missing Value Source: NWS Daily Summary

Daily Weather History Graph

Daily Weather History Graph

Search for Another Location

Airport:

Trip Planner

Search our weather history database for the weather conditions in past years. The results will help you decide how hot, cold, wet, or windy it might be!

Date:

Astronomy

Oct. 15, 2011 Rise Set
Actual Time 7:01 AM PDT 6:22 PM PDT
Civil Twilight 6:36 AM PDT 6:47 PM PDT
Nautical Twilight 6:07 AM PDT 7:16 PM PDT
Astronomical Twilight 5:38 AM PDT 7:45 PM PDT
Moon 8:33 PM PDT (10/15) 10:19 AM PDT (10/15)
Length of Visible Light 12h 11m
Length of Day
11h 20m
Waning Gibbous, 88% of the Moon is Illuminated
Oct 15
Waning Gibbous
Oct 19
Last Quarter
Oct 26
New
Nov 2
First Quarter
Nov 10
Full

Hourly Weather History & Observations

Time (PDT) Temp. Dew Point Humidity Pressure Visibility Wind Dir Wind Speed Gust Speed Precip Events Conditions
12:55 AM 64.9 °F 59.0 °F 81% 29.92 in 9.0 mi North 3.5 mph - N/A   Overcast
1:05 AM 64.4 °F 59.0 °F 83% 29.90 in 9.0 mi NNW 4.6 mph - N/A   Overcast
1:55 AM 64.9 °F 59.0 °F 81% 29.93 in 7.0 mi Calm Calm - N/A   Overcast
2:55 AM 64.9 °F 59.0 °F 81% 29.93 in 7.0 mi SSW 5.8 mph - N/A   Overcast
3:08 AM 64.4 °F 59.0 °F 83% 29.90 in 7.0 mi SSW 4.6 mph - N/A   Overcast
3:37 AM 64.4 °F 59.0 °F 83% 29.89 in 8.0 mi SSW 5.8 mph - N/A   Overcast
3:55 AM 64.9 °F 59.0 °F 81% 29.92 in 9.0 mi SSW 4.6 mph - N/A   Overcast
4:55 AM 64.9 °F 57.9 °F 78% 29.93 in 7.0 mi ENE 3.5 mph - N/A   Overcast
5:22 AM 64.4 °F 57.2 °F 77% 29.89 in 7.0 mi NE 4.6 mph - N/A   Overcast
6:55 AM 64.9 °F 57.9 °F 78% 29.95 in 5.0 mi Calm Calm - N/A   Haze
7:55 AM 64.9 °F 57.9 °F 78% 29.96 in 5.0 mi Calm Calm - N/A   Haze
8:02 AM 64.4 °F 57.2 °F 77% 29.93 in 5.0 mi Calm Calm - N/A   Haze
8:55 AM 64.9 °F 57.9 °F 78% 29.98 in 6.0 mi Calm Calm - N/A   Haze
9:55 AM 66.0 °F 57.9 °F 75% 29.99 in 6.0 mi Calm Calm - N/A   Haze
10:55 AM 66.9 °F 57.9 °F 73% 29.99 in 6.0 mi Calm Calm - N/A   Haze
11:20 AM 68.0 °F 57.2 °F 68% 29.96 in 6.0 mi SSW 4.6 mph - N/A   Haze
11:55 AM 69.1 °F 57.9 °F 68% 29.99 in 6.0 mi SSW 4.6 mph - N/A   Haze
12:12 PM 71.6 °F 57.2 °F 60% 29.96 in 7.0 mi WSW 5.8 mph - N/A   Scattered Clouds
12:55 PM 71.1 °F 59.0 °F 66% 29.97 in 8.0 mi SW 6.9 mph - N/A   Scattered Clouds
1:55 PM 71.1 °F 59.0 °F 66% 29.95 in 10.0 mi SSW 8.1 mph - N/A   Clear
2:55 PM 71.1 °F 57.9 °F 63% 29.96 in 10.0 mi WSW 8.1 mph - N/A   Clear
3:55 PM 69.1 °F 57.0 °F 65% 29.95 in 10.0 mi SW 8.1 mph - N/A   Clear
5:55 PM 66.9 °F 55.9 °F 68% 29.95 in 10.0 mi West 4.6 mph - N/A   Clear
6:55 PM 64.9 °F 57.0 °F 75% 29.96 in 10.0 mi West 6.9 mph - N/A   Clear
7:55 PM 63.0 °F 55.9 °F 78% 29.98 in 10.0 mi WNW 3.5 mph - N/A   Clear
8:55 PM 64.0 °F 55.9 °F 75% 29.98 in 10.0 mi Calm Calm - N/A   Clear
9:55 PM 62.1 °F 55.0 °F 78% 29.99 in 10.0 mi Calm Calm - N/A   Clear
10:55 PM 62.1 °F 55.0 °F 78% 29.99 in 10.0 mi Calm Calm - N/A   Clear
11:55 PM 60.1 °F 55.0 °F 83% 29.99 in 10.0 mi Calm Calm - N/A   Clear